This is the latest recevied weather packets stored in our database for station/object IZ5MJO-13. If no packets are shown the sender has not sent any weather packets the latest 10 day(s).
| Time | Temp. | Humidity | Pressure | Rain* | Wind** | Luminosity | Snow |
|---|---|---|---|---|---|---|---|
| 1787406589 | 30.56° C | 27% | 1005.4 hPa | - | - | - | - |
| 1787405689 | 30.56° C | 29% | 1005.3 hPa | - | - | - | - |
| 1787404789 | 31.11° C | 30% | 1005.3 hPa | - | - | - | - |
| 1787403889 | 31.11° C | 30% | 1005.4 hPa | - | - | - | - |
| 1787402988 | 31.11° C | 29% | 1005.3 hPa | - | - | - | - |
| 1787402088 | 31.11° C | 33% | 1005.4 hPa | - | - | - | - |
| 1787401215 | 30.56° C | 33% | 1005.3 hPa | - | - | - | - |
| 1787400314 | 30.56° C | 36% | 1005.4 hPa | - | - | - | - |
| 1787399414 | 28.89° C | 37% | 1005.2 hPa | - | - | - | - |
| 1787398514 | 28.89° C | 39% | 1005.2 hPa | - | - | - | - |
| 1787397614 | 29.44° C | 43% | 1005.5 hPa | - | - | - | - |
| 1787396714 | 28.33° C | 44% | 1005.3 hPa | - | - | - | - |
| 1787395813 | 27.22° C | 45% | 1005.4 hPa | - | - | - | - |
| 1787394913 | 27.22° C | 47% | 1005.3 hPa | - | - | - | - |
| 1787394013 | 27.78° C | 46% | 1005.3 hPa | - | - | - | - |
| 1787393113 | 27.78° C | 48% | 1005.3 hPa | - | - | - | - |
| 1787392213 | 27.22° C | 52% | 1005.3 hPa | - | - | - | - |
| 1787391312 | 26.67° C | 52% | 1005.3 hPa | - | - | - | - |
| 1787390412 | 26.11° C | 53% | 1005.4 hPa | - | - | - | - |
| 1787389512 | 26.11° C | 56% | 1005.3 hPa | - | - | - | - |
| 1787388612 | 25.56° C | 57% | 1005.3 hPa | - | - | - | - |
| 1787387712 | 25° C | 58% | 1005.1 hPa | - | - | - | - |
| 1787386811 | 24.44° C | 61% | 1005.1 hPa | - | - | - | - |
| 1787385911 | 23.89° C | 61% | 1005 hPa | - | - | - | - |
| 1787385011 | 24.44° C | 62% | 1005 hPa | - | - | - | - |
* Rain since midnight (hover to see other rain measurements)
** Current wind speed in m/s (hover to see current wind gust speed)